(192) Nausikaa
ephemeris date magn radius delta ra dec elong phase
Today14 Aug 20269.81.855 AU1.036 AU00h40m+05°04'129.7°24.9°
Opposition30 Sep 20268.41.816 AU0.817 AU00h17m+08°40'173.8°3.4°
(192) Nausikaa - 2026-08-14
astro.vanbuitenen.nl


 
-1 year
-1 month
-1 day
Now
+1 day
+1 month
+1 year

The interactive orbit chart above shows the body's path through the solar system and its position at the given date. Green and blue lines are shown perpendicular to the ecliptic plane: Green if the path is above the ecliptic plane, blue if it is below. (Left-click and drag to rotate the view; Right-click and drag to move the view; Use scroll wheel to zoom in our out.)

The orbital elements of Nausikaa are:

            e (Eccentricity)                : 0.2451733
            a (Semimajor axis)              : 2.4033554
            i (Inclination)                 : 6.79570
            Ω (Longitude of ascending node) : 343.07037
            ω (Argument of perihelion)      : 30.57690
            M (Mean anomaly)                : 326.27489
            Epoch                           : 2026 Jun 09

            L (Longitude of perihelion)     : 13.47065
            B (Latitude of perihelion)      : 3.45092
            P (Orbital period in years)     : 3.73            
        

The light curve chart below shows the estimated development of the minor planet's magnitude.


The all-sky chart below shows the path of the minor planet over the same period as the light curve. The current position is marked yellow.





The following chart shows the path of the minor planet in the next few days. The field of view is optimized for (~10x50) binoculars and finderscopes.




Ephemerides:
Date       Time       RA (2000)    DEC (2000)    delta   radius  elong  phase   PA    magn
2026-08-14 00:00 UT   00 40 09.8   +05 04 53     1.036    1.855  129.7   24.9   246    9.8 
2026-08-14 04:13 UT   00 40 12.8   +05 06 18     1.035    1.854  129.8   24.8   246    9.8 
2026-08-15 00:00 UT   00 40 25.8   +05 12 53     1.028    1.853  130.5   24.6   246    9.8 
2026-08-16 00:00 UT   00 40 39.8   +05 20 47     1.020    1.852  131.4   24.2   246    9.7 
2026-08-17 00:00 UT   00 40 51.8   +05 28 33     1.012    1.851  132.2   23.9   246    9.7 
2026-08-18 00:00 UT   00 41 01.6   +05 36 12     1.004    1.850  133.1   23.6   246    9.7 
2026-08-19 00:00 UT   00 41 09.5   +05 43 43     0.996    1.849  134.0   23.2   246    9.6 
2026-08-20 00:00 UT   00 41 15.2   +05 51 06     0.989    1.847  134.9   22.8   246    9.6 
2026-08-21 00:00 UT   00 41 18.9   +05 58 22     0.981    1.846  135.8   22.5   246    9.6 
2026-08-22 00:00 UT   00 41 20.4   +06 05 29     0.974    1.845  136.7   22.1   245    9.5 
2026-08-23 00:00 UT   00 41 19.8   +06 12 28     0.966    1.844  137.6   21.7   245    9.5 
2026-08-24 00:00 UT   00 41 17.2   +06 19 19     0.959    1.843  138.5   21.3   245    9.5 
2026-08-25 00:00 UT   00 41 12.3   +06 26 01     0.952    1.842  139.4   20.9   245    9.5 
2026-08-26 00:00 UT   00 41 05.4   +06 32 35     0.946    1.841  140.4   20.5   245    9.4 
2026-08-27 00:00 UT   00 40 56.3   +06 39 00     0.939    1.840  141.3   20.1   244    9.4 
2026-08-28 00:00 UT   00 40 45.0   +06 45 17     0.932    1.839  142.3   19.6   244    9.4 
2026-08-29 00:00 UT   00 40 31.7   +06 51 24     0.926    1.838  143.3   19.2   244    9.3 
2026-08-30 00:00 UT   00 40 16.2   +06 57 22     0.920    1.837  144.2   18.7   244    9.3 
2026-08-31 00:00 UT   00 39 58.5   +07 03 10     0.914    1.836  145.2   18.3   243    9.3 
2026-09-01 00:00 UT   00 39 38.8   +07 08 49     0.908    1.835  146.2   17.8   243    9.2 
2026-09-02 00:00 UT   00 39 16.9   +07 14 18     0.902    1.834  147.2   17.3   243    9.2 
2026-09-03 00:00 UT   00 38 52.9   +07 19 38     0.897    1.833  148.2   16.8   242    9.2 
2026-09-04 00:00 UT   00 38 26.9   +07 24 47     0.891    1.832  149.3   16.3   242    9.2 
2026-09-05 00:00 UT   00 37 58.8   +07 29 46     0.886    1.831  150.3   15.8   241    9.1 
2026-09-06 00:00 UT   00 37 28.7   +07 34 35     0.881    1.830  151.3   15.3   241    9.1 
2026-09-07 00:00 UT   00 36 56.6   +07 39 13     0.876    1.829  152.4   14.8   240    9.1 
2026-09-08 00:00 UT   00 36 22.5   +07 43 41     0.871    1.829  153.4   14.3   240    9.0 
2026-09-09 00:00 UT   00 35 46.5   +07 47 59     0.867    1.828  154.5   13.8   239    9.0 
2026-09-10 00:00 UT   00 35 08.7   +07 52 06     0.862    1.827  155.5   13.2   239    9.0 
2026-09-11 00:00 UT   00 34 29.1   +07 56 02     0.858    1.826  156.6   12.7   238    8.9 
2026-09-12 00:00 UT   00 33 47.8   +07 59 48     0.854    1.826  157.6   12.1   237    8.9 
2026-09-13 00:00 UT   00 33 04.8   +08 03 23     0.850    1.825  158.7   11.5   236    8.9 


    Terminology:
            
    delta:  distance between minor planet and earth in AU
    radius: distance between minor planet and sun in AU
    magn:   magnitude (brightness) estimate    
    ra:     right ascension in hours (24h = 360deg)
    dec:    declination in degrees
    elong:  elongation in degrees (angle sun-earth-minor planet)    
    phase:  phase angle in degrees (angle sun-minor planet-earth)        
    AU:     Astronomical Unit (mean distance between earth and sun: 149597870.7 km
    

Orbital elements provided by the MPC (Minor Planet Center).
Calculations by a modified version of AAPlus, a C# implementation of the AA+ project by PJ Naughter from the algorithms presented in the book "Astronomical Algorithms" by Jean Meeus.
NGC2000 dso catalog and star labels from VizieR as provided by the Strasbourg astronomical Data Center.
Tycho2 catalog from the ESO archive.